Find Starlink 5873

NORAD ID: 56490 Int'l Des: 2023-064 Owner: SPXS Country: US Constellation: starlink operational
LEOCIRCULAR

当前视图

正在加载3D地球...

About Starlink 5873

Starlink 5873 (NORAD 56490) is a starlink constellation satellite (v1.5) launched May 10, 2023 by SPXS of US. It operates in LEO, CIRCULAR orbit with a mass of 305.00 kg.

关于 Starlink 5873

正在加载描述...

即将过境

Passes for default location (London). Set your location on the main map for personalized predictions.

高度历史

Loading altitude history...

两行轨道根数

1 56490U 23064AU 26178.40881735 .00001266 00000-0 11383-3 0 9993
2 56490 69.9994 187.9607 0003521 267.4090 92.6666 14.98339997172668
Epoch: Jun 27, 2026 • Age: 9 hours

当前状态

高度 577.0 km
速度 7.57 km/s
星下点 32.61°N, 160.76°E
发射日期 May 10, 2023
运行时间 3.1 years
类型 internet

技术详情

分类 Payload
质量 305.00 kg
干质量 290.00 kg
总质量 305.00 kg
长度 0.20 m
直径 2.80 m
跨度 9.00 m
形状 Box + pan
制造商 SPXS
平台类型 Starlink
阶段状态 In Orbit
所有者/国家 SPXS/US

Most Searched